CZ-2D DEB (52911 NORAD) Tracking and Keplerian Element Data

This shows tracking and keplerian element data for the satellite.

Feedback or suggestion? Click here.




ElementValue
Catalog52911
NameCZ-2D DEB
Epoch Orbit286
Epoch Day193.06800038
Epoch Year2022
RAAN162.7407
Inclination34.9977
Eccentricity0.0007719
Argument of Perigee88.3141
Mean Anonmoly271.8784
Mean Motion15.25002313
Decay Rate0.00014613
L11 52911U 22068E 22193.06800038 .00014613 00000+0 57127-3 0 9997
L22 52911 34.9977 162.7407 0007719 88.3141 271.8784 15.25002313 2860

Live tracking and technical data element details for CZ-2D DEB (NORAD 52911). CZ-2D DEB can be tracked NOW for your location showing map with azimuth and elevation plus other details from your city location.

Track the satellite on the map from your city or location and see movement details for azimuth, elevation, latitude, longitude, range, height, and movement on the map or in text.







IsCatalogInMostPopularTable: catalog: 52911, numindb: 8
Update: records affected: 1



GetName: 52911 CZ-2D DEB

Hit Count: updated at: Thu, 06 Oct 2022 03:43:31 GMT